sat.trackr.live / text

‹ back to catalog

STARLINK-37477

NORAD 68912 · 2026-097T

PAYLOAD ACTIVE UNKNOWN

§ Identity

Operator
Country
US
Launch date
2026-04-30
Launch site
AFWTR
Launch vehicle
Mass (kg)
RCS (m²)

Purposes: comms

External: N2YO · Heavens-Above · Gunter

§ Orbital elements

Epoch: 2026-05-25T02:39:23.120064Z

Period
92.95 min
Inclination
97.2859°
Eccentricity
0.0001447
Mean motion
15.49206532 rev/d
Perigee alt
418.1 km
Apogee alt
420.0 km
Semi-major
6,797.2 km
B*
7.8926e-4
RAAN
340.8640°
Arg perigee
87.0136°
Mean anomaly
273.1281°
Rev number
394

§ Raw data

STARLINK-374771 68912U 26097T   26145.11068426  .00043097  00000+0  78926-3 0  99932 68912  97.2859 340.8640 0001447  87.0136 273.1281 15.49206532  3941

JSON: /api/v1/satellites/68912 · /tle

For live sub-satellite position, see the globe view (requires WebGL).

§ Visibility from observer

Set your observer location to see the next 7 days of passes ≥ 10°. The values pass through the URL so the page stays shareable.

No JS? Fill the form by hand. The geolocation button needs JavaScript.